Change the Weather History Date:

Friday, February 28, 2014

  Actual Average (KMKO) Record (KMKO)
Temperature  
Mean Temperature 43 °F -  
Max Temperature 52 °F 53 °F 79 °F (2006)
Min Temperature 34 °F 32 °F 19 °F (2002)
Degree Days  
Heating Degree Days 22    
Moisture  
Dew Point 31 °F    
Average Humidity 66    
Maximum Humidity 93    
Minimum Humidity 49    
Precipitation  
Precipitation 0.02 in - - ()
Sea Level Pressure  
Sea Level Pressure 29.81 in    
Wind  
Wind Speed 9 mph (ESE)    
Max Wind Speed 18 mph    
Max Gust Speed 25 mph    
Visibility 10 miles    
Events Rain    
Averages and records for this station are not official NWS values.
T = Trace of Precipitation, MM = Missing Value Source: NWS Daily Summary

Daily Weather History Graph

Daily Weather History Graph

Search for Another Location

Airport or City:

Trip Planner

Search our weather history database for the weather conditions in past years. The results will help you decide how hot, cold, wet, or windy it might be!

Date:

Astronomy

Feb. 28, 2014 Rise Set
Actual Time 6:54 AM CST 6:18 PM CST
Civil Twilight 6:29 AM CST 6:43 PM CST
Nautical Twilight 5:59 AM CST 7:13 PM CST
Astronomical Twilight 5:30 AM CST 7:42 PM CST
Moon 6:09 AM CST 5:55 PM CST
Length of Visible Light 12h 14m
Length of Day
11h 23m
Waning Crescent, 1% of the Moon is Illuminated
Feb 28
Waning Crescent
Mar 1
New
Mar 8
First Quarter
Mar 16
Full
Mar 23
Last Quarter

Hourly Weather History & Observations

Time (CST) Temp. Windchill Dew Point Humidity Pressure Visibility Wind Dir Wind Speed Gust Speed Precip Events Conditions
12:15 AM 36.1 °F 31.4 °F 19.2 °F 50% 29.85 in 10.0 mi SE 5.8 mph - N/A   Clear
12:35 AM 36.3 °F 32.5 °F 20.1 °F 52% 29.85 in 10.0 mi SE 4.6 mph - N/A   Clear
12:55 AM 34.2 °F 28.2 °F 21.0 °F 59% 29.85 in 10.0 mi SE 6.9 mph - N/A   Clear
1:15 AM 34.7 °F 28.8 °F 20.8 °F 57% 29.85 in 10.0 mi SE 6.9 mph - N/A   Clear
1:35 AM 34.3 °F 28.4 °F 21.6 °F 60% 29.84 in 10.0 mi SE 6.9 mph - N/A   Clear
1:55 AM 36.0 °F 29.0 °F 21.6 °F 56% 29.83 in 10.0 mi SE 9.2 mph - N/A   Clear
2:15 AM 35.8 °F 29.4 °F 21.2 °F 55% 29.82 in 10.0 mi SE 8.1 mph - N/A   Clear
2:35 AM 35.8 °F 29.4 °F 21.2 °F 55% 29.81 in 10.0 mi SE 8.1 mph - N/A   Clear
2:55 AM 36.5 °F 29.2 °F 20.8 °F 53% 29.80 in 10.0 mi SE 10.4 mph - N/A   Clear
3:15 AM 36.9 °F 30.7 °F 20.3 °F 51% 29.80 in 10.0 mi SE 8.1 mph - N/A   Clear
3:35 AM 35.6 °F 29.2 °F 20.3 °F 54% 29.78 in 10.0 mi SE 8.1 mph - N/A   Clear
3:55 AM 35.8 °F 30.1 °F 20.7 °F 54% 29.78 in 10.0 mi SE 6.9 mph - N/A   Clear
4:15 AM 36.9 °F - 20.8 °F 52% 29.82 in 10.0 mi Calm Calm - N/A   Clear
4:35 AM 37.4 °F 34.9 °F 21.2 °F 52% 29.82 in 10.0 mi South 3.5 mph - N/A   Mostly Cloudy
4:55 AM 36.0 °F 29.6 °F 21.4 °F 55% 29.80 in 10.0 mi SE 8.1 mph - N/A   Scattered Clouds
5:15 AM 37.0 °F 29.3 °F 21.6 °F 54% 29.77 in 10.0 mi SE 11.5 mph 17.3 mph N/A   Scattered Clouds
5:35 AM 38.5 °F 29.2 °F 21.4 °F 50% 29.73 in 10.0 mi ESE 17.3 mph 21.9 mph N/A   Mostly Cloudy
5:55 AM 39.7 °F 31.5 °F 22.1 °F 49% 29.73 in 10.0 mi SE 15.0 mph 19.6 mph N/A   Mostly Cloudy
6:15 AM 40.5 °F 32.5 °F 23.4 °F 51% 29.72 in 10.0 mi SE 15.0 mph - N/A   Scattered Clouds
6:35 AM 41.5 °F 32.9 °F 24.4 °F 51% 29.72 in 10.0 mi SE 18.4 mph 23.0 mph N/A   Mostly Cloudy
6:55 AM 41.2 °F 34.5 °F 24.6 °F 52% 29.74 in 10.0 mi SSE 11.5 mph 20.7 mph N/A   Light Drizzle
7:15 AM 41.2 °F 34.5 °F 26.6 °F 56% 29.75 in 10.0 mi SSE 11.5 mph - N/A   Overcast
7:35 AM 42.3 °F 36.8 °F 26.6 °F 54% 29.77 in 10.0 mi SSE 9.2 mph 23.0 mph N/A   Overcast
7:55 AM 41.4 °F 35.2 °F 30.7 °F 66% 29.78 in 10.0 mi SSE 10.4 mph 16.1 mph N/A Rain Light Rain
8:15 AM 41.2 °F 37.3 °F 31.8 °F 69% 29.78 in 10.0 mi SSE 5.8 mph - N/A Rain Light Rain
8:35 AM 39.2 °F 33.6 °F 33.6 °F 80% 29.77 in 7.0 mi SE 8.1 mph - 0.02 in Rain Rain
8:55 AM 38.3 °F 32.5 °F 34.0 °F 84% 29.78 in 10.0 mi East 8.1 mph - 0.02 in   Overcast
9:15 AM 38.7 °F 34.3 °F 34.2 °F 84% 29.79 in 10.0 mi ESE 5.8 mph - N/A   Overcast
9:35 AM 39.2 °F 33.6 °F 34.5 °F 83% 29.79 in 10.0 mi ESE 8.1 mph - N/A   Overcast
9:55 AM 39.7 °F 34.9 °F 35.4 °F 85% 29.78 in 10.0 mi ESE 6.9 mph - N/A   Overcast
10:15 AM 39.2 °F 32.5 °F 33.1 °F 79% 29.78 in 10.0 mi ESE 10.4 mph 18.4 mph N/A   Overcast
10:35 AM 40.5 °F 32.8 °F 33.3 °F 75% 29.77 in 10.0 mi ESE 13.8 mph 21.9 mph N/A   Overcast
10:55 AM 42.3 °F 34.4 °F 33.8 °F 72% 29.77 in 10.0 mi ESE 16.1 mph - N/A   Overcast
11:15 AM 44.6 °F 38.4 °F 35.2 °F 70% 29.78 in 10.0 mi ESE 12.7 mph 19.6 mph N/A   Overcast
11:35 AM 47.5 °F - 34.7 °F 61% 29.77 in 10.0 mi SSE 18.4 mph 25.3 mph N/A   Overcast
11:55 AM 48.2 °F - 34.2 °F 58% 29.77 in 10.0 mi SSE 12.7 mph 20.7 mph N/A   Overcast
12:15 PM 50.2 °F - 35.1 °F 56% 29.76 in 10.0 mi SE 12.7 mph 23.0 mph N/A   Overcast
12:35 PM 50.5 °F - 35.6 °F 57% 29.76 in 10.0 mi SSE 12.7 mph 21.9 mph N/A   Overcast
12:55 PM 50.7 °F - 36.0 °F 57% 29.76 in 10.0 mi SSE 16.1 mph 24.2 mph N/A   Overcast
1:15 PM 51.6 °F - 36.5 °F 56% 29.75 in 10.0 mi SSE 12.7 mph 25.3 mph N/A   Overcast
1:35 PM 51.6 °F - 36.7 °F 57% 29.74 in 10.0 mi SSE 15.0 mph 21.9 mph N/A   Overcast
1:55 PM 52.0 °F - 37.0 °F 57% 29.74 in 10.0 mi ESE 12.7 mph 18.4 mph N/A   Overcast
2:15 PM 52.2 °F - 37.2 °F 57% 29.75 in 10.0 mi SE 10.4 mph - N/A   Overcast
2:35 PM 52.7 °F - 37.6 °F 56% 29.75 in 10.0 mi ESE 11.5 mph 19.6 mph N/A   Overcast
2:55 PM 52.5 °F - 36.5 °F 54% 29.76 in 10.0 mi East 13.8 mph 20.7 mph N/A   Overcast
3:15 PM 51.6 °F - 36.3 °F 56% 29.76 in 10.0 mi East 10.4 mph 21.9 mph N/A   Overcast
3:35 PM 51.1 °F - 36.1 °F 57% 29.77 in 10.0 mi East 13.8 mph 23.0 mph N/A   Overcast
3:55 PM 50.5 °F - 36.0 °F 57% 29.78 in 10.0 mi East 13.8 mph 20.7 mph N/A   Overcast
4:15 PM 49.6 °F - 35.4 °F 58% 29.78 in 10.0 mi East 15.0 mph 21.9 mph N/A   Overcast
4:35 PM 49.5 °F - 35.6 °F 59% 29.79 in 10.0 mi ESE 15.0 mph 23.0 mph N/A   Mostly Cloudy
4:55 PM 50.0 °F - 36.1 °F 59% 29.79 in 10.0 mi East 13.8 mph 19.6 mph N/A   Scattered Clouds
5:15 PM 49.6 °F - 36.5 °F 61% 29.79 in 10.0 mi East 15.0 mph 21.9 mph N/A   Clear
5:30 PM 48.6 °F - 36.5 °F 63% 29.80 in 10.0 mi East 10.4 mph 18.4 mph N/A   Clear
5:55 PM 46.2 °F 42.2 °F 35.4 °F 66% 29.81 in 10.0 mi East 8.1 mph 18.4 mph N/A   Clear
6:15 PM 44.6 °F 40.2 °F 35.2 °F 70% 29.82 in 10.0 mi East 8.1 mph - N/A   Clear
6:35 PM 43.5 °F 38.3 °F 35.1 °F 72% 29.82 in 10.0 mi East 9.2 mph 16.1 mph N/A   Clear
6:55 PM 41.7 °F 38.8 °F 34.7 °F 76% 29.84 in 10.0 mi ENE 4.6 mph - N/A   Clear
7:15 PM 41.2 °F 37.3 °F 34.9 °F 78% 29.85 in 10.0 mi SE 5.8 mph - N/A   Clear
7:35 PM 39.4 °F 34.5 °F 34.5 °F 83% 29.86 in 10.0 mi ESE 6.9 mph - N/A   Clear
7:55 PM 39.0 °F 34.0 °F 34.5 °F 84% 29.87 in 10.0 mi East 6.9 mph - N/A   Clear
8:15 PM 39.2 °F 34.2 °F 34.7 °F 84% 29.89 in 10.0 mi East 6.9 mph - N/A   Clear
8:35 PM 38.7 °F 33.6 °F 34.5 °F 85% 29.90 in 10.0 mi East 6.9 mph - N/A   Clear
8:55 PM 38.3 °F 33.2 °F 34.7 °F 87% 29.91 in 10.0 mi East 6.9 mph - N/A   Clear
9:15 PM 37.8 °F 33.3 °F 34.3 °F 87% 29.91 in 10.0 mi East 5.8 mph - N/A   Clear
9:35 PM 36.9 °F 32.2 °F 34.0 °F 89% 29.92 in 10.0 mi East 5.8 mph - N/A   Clear
9:55 PM 36.9 °F 34.3 °F 34.2 °F 90% 29.94 in 10.0 mi East 3.5 mph - N/A   Scattered Clouds
10:10 PM 36.7 °F 32.9 °F 34.2 °F 91% 29.94 in 10.0 mi ENE 4.6 mph - N/A   Scattered Clouds
10:35 PM 36.7 °F 32.9 °F 34.9 °F 93% 29.96 in 10.0 mi ENE 4.6 mph - N/A   Mostly Cloudy
10:55 PM 37.0 °F 33.3 °F 35.1 °F 93% 29.97 in 10.0 mi ENE 4.6 mph - N/A   Overcast
11:15 PM 38.1 °F 33.7 °F 36.1 °F 93% 29.97 in 10.0 mi ENE 5.8 mph - N/A   Overcast
11:35 PM 38.7 °F 34.3 °F 36.5 °F 92% 29.98 in 10.0 mi East 5.8 mph - N/A   Overcast
11:55 PM 39.4 °F 33.8 °F 37.2 °F 92% 29.97 in 10.0 mi East 8.1 mph - N/A   Overcast